SCP
0 0 0 0 0 0 0 0 0 0 0 0 0 0 0 0 0 0 0 0 0 0 0 0 0 0 0 0 0 0 0 0 0 0 0 0 0 0 0 0 0 0 0
0 0 0 0 0 0 0 0 0 0 0 0 0 0 0 0 0 0 0 0 0 0 0 0 0 0 0 0 0 0 0 0 0 0 0 0 0 0 0 0 0 0 0
0 0 0 0 0 0 0 0 0 0 0 0 0 0 0 0 0 0 0 0 0 0 0 0 0 0 0 0 0 0 0 0 0 0 0 0 0 0 0 0 0 0 0
0 0 0 0 0 0 0 0 0 0 0 0 0 0 0 0 0 0 0 0 0 0 0 0 0 0 0 0 0 0 0 0 0 0 0 0 0 0 0 0 0 0 0
0 0 0 0 0 0 0 0 0 0 0 0 0 0 0 0 0 0 0 0 0 0 0 0 0 0 0 0 0 0 0 0 0 0 0 0 0 0 0 0 0 0 0
0 0 0 0 0 0 0 0 0 0 0 0 0 0 0 0 0 0 0 0 0 0 0 0 0 0 0 0 0 0 0 0 0 0 0 0 0 0 0 0 0 0 0
0 0 0 0 0 0 0 0 0 0 0 0 0 0 0 0 0 0 0 0 0 0 0 0 0 0 0 0 0 0 0 0 0 0 0 0 0 0 0 0 0 0 0
0 0 0 0 0 0 0 0 0 0 0 0 0 0 0 0 0 0 0 0 0 0 0 0 0 0 0 0 0 0 0 0 0 0 0 0 0 0 0 0 0 0 0
0 0 0 0 0 0 0 0 0 0 0 0 0 0 0 0 0 0 0 0 0 0 0 0 0 0 0 0 0 0 0 0 0 0 0 0 0 0 0 0 0 0 0
0 0 0 0 0 0 0 0 0 0 0 0 0 0 0 0 0 0 0 0 0 0 0 0 0 0 0 0 0 0 0 0 0 0 0 0 0 0 0 0 0 0 0
0 0 0 0 0 0 0 0 0 0 0 0 0 0 0 0 0 0 0 0 0 0 0 0 0 0 0 0 0 0 0 0 0 0 0 0 0 0 0 0 1 1 1
0 0 0 0 0 0 0 0 0 0 0 0 0 0 0 0 0 0 0 0 0 0 0 0 0 0 0 0 0 0 0 0 0 0 0 0 0 0 0 1 1 1 1
0 0 0 0 0 0 0 0 0 0 0 0 0 0 0 0 0 0 0 0 0 0 0 0 0 0 0 0 0 0 0 0 0 0 0 0 0 0 0 0 1 1 1
0 0 0 0 0 0 0 0 0 0 0 0 0 0 0 0 0 0 0 0 0 0 0 0 0 0 0 0 0 0 0 0 0 0 0 0 0 0 0 0 0 0 0
0 0 0 0 0 0 0 0 0 0 0 0 0 0 0 0 0 0 0 0 0 0 0 0 0 0 0 0 0 0 0 0 0 0 0 0 0 0 0 0 0 0 0
0 0 0 0 0 0 0 0 0 0 0 0 0 0 0 0 0 0 0 0 0 0 0 0 0 0 0 0 0 0 0 0 0 0 0 0 0 0 0 0 0 0 0
0 0 0 0 0 0 0 0 0 0 0 0 0 0 0 0 0 0 0 0 0 0 0 0 0 0 0 0 0 0 0 0 0 0 0 0 0 0 0 0 0 0 0
0 0 0 0 0 0 0 0 0 0 0 0 0 0 0 0 0 0 0 0 0 0 0 0 0 0 0 0 0 0 0 0 0 0 0 0 0 0 0 0 0 0 0
0 0 0 0 0 0 0 0 0 0 0 0 0 0 0 0 0 0 0 0 0 0 0 0 0 0 0 0 0 0 0 0 0 0 0 0 0 0 0 0 0 0 0
0 0 0 0 0 0 0 0 0 0 0 0 0 0 0 0 0 0 0 0 0 0 0 0 0 0 0 0 0 0 0 0 0 0 0 0 0 0 0 0 0 0 0
0 0 0 0 0 0 0 0 0 0 0 0 0 0 0 0 0 0 0 0 0 0 0 0 0 0 0 0 0 0 0 0 0 0 0 0 0 0 0 0 0 0 0
0 0 0 0 0 0 0 0 0 0 0 0 0 0 0 0 0 0 0 0 0 0 0 0 0 0 0 0 0 0 0 0 0 0 0 0 0 0 0 0 0 0 0
0 0 0 0 0 0 0 0 0 0 0 0 0 0 0 0 0 0 0 0 0 0 0 0 0 0 0 0 0 0 0 0 0 0 0 0 0 0 0 0 0 0 0
0 0 0 0 0 0 0 0 0 0 0 0 0 0 0 0 0 0 0 0 0 0 0 0 0 0 0 0 0 0 0 0 0 0 0 0 0 0 0 0 0 0 0
0 0 0 0 0 0 0 0 0 0 0 0 0 0 0 0 0 0 0 0 0 0 0 0 0 0 0 0 0 0 0 0 0 0 0 0 0 0 0 0 0 0 0
0 0 0 0 0 0 0 0 0 0 0 0 0 0 0 0 0 0 0 0 0 0 0 0 0 0 0 0 0 0 0 0 0 0 0 0 0 0 0 0 0 0 0
Wind_Speed
5 5 4 4 4 3 3 3 3 4 4 4 4 3 2 1 2 4 6 13 14 14 13 13 13 14 13 13 13 13 14 14 14 14 13 12 11 10 8 7 6 6 7
6 6 6 5 4 4 4 4 4 3 3 3 3 3 1 1 3 4 5 9 14 14 14 14 13 13 14 13 13 13 14 14 14 14 14 13 12 11 11 9 8 8 7
8 7 6 5 4 4 4 4 4 3 3 3 2 2 0 1 3 5 5 4 6 11 14 14 14 13 13 14 13 13 14 15 15 15 14 13 12 12 13 13 12 12 11
10 8 6 5 5 4 4 3 2 2 3 3 2 1 2 2 3 4 4 4 4 4 8 12 12 12 12 13 14 14 15 15 16 15 15 14 13 14 14 15 15 15 15
11 9 7 6 6 4 4 3 3 4 4 5 3 2 2 4 4 3 2 3 3 4 4 7 9 9 11 13 14 15 16 16 17 17 17 16 15 16 16 17 17 18 18
12 9 7 7 6 5 4 4 5 4 4 5 4 2 2 4 4 3 2 1 0 2 5 7 7 7 10 13 15 15 16 17 18 18 18 18 17 18 18 19 19 20 20
12 10 8 7 6 5 5 5 4 5 5 5 4 2 2 5 5 4 3 4 3 3 5 8 8 8 7 13 13 14 16 17 18 19 19 19 19 20 21 21 22 22 23
11 9 10 8 7 6 6 5 4 2 3 4 4 4 3 3 3 4 4 4 5 5 6 9 10 10 9 7 10 15 15 17 19 20 21 21 21 22 23 24 24 25 25
10 10 10 9 8 6 5 5 4 3 3 3 4 4 4 3 5 4 4 5 5 6 7 8 10 11 9 8 9 11 15 18 20 21 22 23 24 25 25 26 27 28 29
11 11 10 9 8 6 6 5 4 3 2 2 1 2 3 4 5 6 5 5 7 8 9 8 10 10 9 8 10 14 15 18 21 23 24 26 27 27 28 28 29 29 30
10 10 10 9 8 6 6 5 4 3 2 2 2 2 2 3 6 5 8 8 7 7 7 9 9 8 8 10 9 10 16 21 24 25 26 26 28 29 29 30 30 31 31
9 10 9 8 8 6 6 5 4 3 1 1 2 3 4 4 5 6 9 11 11 9 10 8 7 7 8 10 10 14 20 23 24 25 26 27 28 29 30 31 32 32 33
9 10 9 8 7 6 6 5 3 2 2 3 3 4 4 5 6 7 10 11 13 11 9 6 6 7 8 8 9 18 22 24 25 26 28 29 30 30 30 31 32 33 33
10 11 9 8 8 7 6 4 3 2 2 3 4 5 5 5 6 7 8 11 13 11 9 11 9 7 6 9 14 21 17 23 26 28 29 31 31 31 31 32 32 32 32
10 11 10 8 7 6 5 4 2 2 2 3 5 6 6 5 6 7 8 9 10 14 14 11 7 7 10 11 15 15 17 22 27 29 30 31 31 32 32 32 32 33 34
11 11 9 8 7 6 4 3 2 1 3 4 4 6 7 6 7 7 8 9 10 13 15 9 11 13 14 13 18 18 18 25 27 28 29 30 31 32 33 34 34 35 34
11 10 9 8 6 5 4 2 2 2 4 5 5 6 8 9 8 8 8 9 9 11 15 15 12 14 18 18 16 16 15 16 16 26 28 30 32 33 33 34 34 34 34
10 9 8 7 5 4 2 1 2 4 5 6 6 7 8 7 9 9 8 9 10 11 14 19 15 14 18 18 18 17 16 15 16 23 28 30 31 32 32 33 33 33 34
10 8 7 6 5 3 1 2 4 5 6 7 7 8 9 10 10 9 10 11 10 11 13 16 17 15 14 14 17 17 18 15 15 17 24 26 28 30 32 32 33 34 33
9 7 6 5 3 1 1 3 5 6 7 8 8 9 10 10 11 12 11 13 13 14 15 15 15 15 14 16 16 15 14 14 14 14 19 21 24 28 29 31 32 32 33
8 6 5 4 2 1 2 5 6 7 8 9 9 10 10 12 15 14 12 14 15 14 14 14 15 15 15 15 15 14 15 15 15 14 15 15 15 15 18 23 27 29 30
7 5 4 2 1 2 4 7 8 8 8 9 10 10 11 12 14 18 20 21 21 18 17 15 14 16 19 18 15 14 15 16 17 12 14 16 15 16 15 15 23 30 31
6 4 3 1 1 3 6 9 10 10 9 9 10 11 10 10 16 13 17 21 21 23 22 18 18 18 19 17 18 19 17 18 18 15 16 18 16 17 15 16 28 31 32
4 3 2 1 2 4 7 10 12 10 9 9 11 12 12 13 13 16 17 17 16 16 17 15 15 17 18 18 18 18 18 18 18 15 15 17 17 17 16 15 25 30 31
4 2 1 2 4 5 6 10 12 9 8 10 11 12 13 13 18 22 18 16 17 15 16 19 23 24 27 27 21 13 14 14 16 15 13 13 14 16 17 16 17 22 24
3 1 0 2 4 6 7 11 13 8 9 10 11 11 14 16 20 23 17 16 17 15 16 17 17 18 17 18 19 14 11 12 14 12 9 9 12 13 13 10 11 13 16
Wind_Direction
153 131 110 96 89 90 94 75 56 48 30 19 12 351 349 16 103 104 83 59 54 52 48 41 35 28 22 19 16 13 9 5 2 360 358 358 359 359 358 355 346 332 313
135 121 107 99 96 90 77 68 57 43 33 20 14 9 3 107 112 109 101 79 59 50 45 36 28 19 11 5 1 358 355 351 346 343 339 338 338 338 335 330 327 324 321
129 121 115 112 106 102 94 77 66 43 39 28 25 20 115 138 128 112 97 82 76 60 47 34 23 12 2 353 347 344 340 337 332 327 323 321 321 322 321 318 312 306 301
128 122 120 116 117 109 96 79 51 39 33 14 4 10 207 171 151 117 104 82 60 48 48 31 15 2 353 344 336 330 327 323 319 314 311 308 308 307 306 304 302 298 293
130 126 122 125 127 116 103 91 59 27 20 5 344 307 240 193 168 167 125 86 63 34 15 14 357 347 339 333 327 322 317 314 311 307 302 298 296 297 297 295 293 291 287
130 126 127 134 131 121 112 102 81 50 20 348 325 315 237 199 206 217 228 210 22 357 355 352 339 331 323 320 319 316 313 310 309 305 299 294 293 293 293 291 289 286 285
132 132 133 133 127 112 107 99 87 60 31 351 328 312 190 209 238 228 249 265 256 296 325 340 334 326 317 319 316 317 314 313 310 305 300 295 292 291 290 288 286 283 280
134 136 136 130 123 116 106 90 75 62 47 15 349 327 316 210 188 212 267 264 277 293 317 330 325 320 318 316 316 315 315 314 312 307 302 298 294 293 291 290 288 285 282
134 133 131 127 124 117 107 93 75 51 46 46 14 349 327 319 320 277 277 285 292 302 314 319 316 316 314 312 312 315 315 315 311 307 304 302 300 297 293 290 289 286 283
131 129 128 126 121 117 116 104 84 66 23 25 38 0 321 317 295 300 278 274 288 296 299 304 310 307 307 313 309 308 314 316 313 309 306 303 300 296 293 291 289 287 284
130 131 130 126 122 119 116 114 110 92 44 2 338 314 288 272 265 280 294 302 297 291 296 299 297 293 306 311 306 312 319 315 310 305 303 301 299 297 295 293 291 289 288
133 133 131 127 126 125 125 125 128 129 118 286 286 288 296 294 297 286 290 299 303 304 302 293 286 289 308 307 301 314 313 308 305 303 302 300 298 297 296 294 293 291 289
142 141 138 134 130 129 131 137 147 159 203 260 277 287 284 280 288 285 287 296 299 299 291 277 273 288 300 298 303 311 305 302 301 301 300 299 298 297 296 294 292 290 288
141 141 138 136 136 137 140 149 162 185 236 266 280 287 287 284 285 286 290 298 299 293 287 290 303 295 293 296 296 300 294 294 296 297 297 297 297 296 295 293 290 289 288
136 139 139 140 140 141 146 162 180 203 254 277 291 291 288 291 290 288 286 284 289 296 298 299 292 298 299 297 295 291 290 291 293 293 292 293 293 293 292 291 290 289 287
136 139 141 143 144 147 155 170 194 240 283 298 304 299 301 297 295 289 285 283 280 284 287 292 298 299 302 296 291 290 290 292 290 290 290 291 291 291 291 290 289 286 284
138 140 143 146 148 152 162 183 234 284 299 304 302 303 303 303 297 295 293 288 284 284 287 293 297 301 299 296 296 295 295 294 291 291 292 292 291 291 289 288 287 286 284
134 137 142 144 144 152 172 231 290 300 302 302 303 303 304 304 300 297 295 292 290 289 289 295 299 299 298 299 298 299 299 294 291 293 293 292 291 290 289 288 286 285 283
130 135 141 141 142 149 195 296 306 305 299 294 294 298 302 302 300 300 298 294 292 291 289 291 294 297 297 299 302 299 297 296 296 295 294 292 290 288 287 286 285 285 284
132 136 135 131 128 132 298 309 307 302 296 289 287 290 296 298 300 301 296 295 295 295 293 291 293 297 299 302 302 302 303 302 299 298 292 289 287 288 286 285 284 283 281
129 134 134 128 107 28 349 327 315 304 297 294 291 292 293 296 297 297 298 299 301 297 294 293 295 299 301 304 304 306 303 303 298 297 295 293 294 289 288 285 283 280 279
132 135 131 116 74 18 340 324 319 305 298 296 298 299 299 297 299 301 301 300 296 293 293 295 297 298 300 302 305 304 302 302 301 303 299 296 295 290 288 286 285 285 284
138 138 126 95 353 2 336 327 318 305 299 298 299 301 302 303 306 303 301 298 295 293 291 293 294 294 298 302 302 301 300 299 297 300 299 293 294 291 291 288 290 288 287
139 138 124 11 330 346 335 322 318 306 299 297 301 304 304 306 307 308 304 301 298 295 293 293 291 292 292 294 294 297 297 294 290 289 289 291 296 295 296 294 292 288 286
138 138 141 334 326 330 329 322 325 311 302 303 305 303 304 302 305 308 307 305 302 300 301 298 292 289 291 294 295 293 291 291 294 297 297 288 295 302 297 290 288 288 288
136 149 303 323 317 318 324 326 326 312 312 312 308 306 304 307 310 311 311 309 306 308 307 303 299 297 295 292 290 284 286 289 293 296 295 298 301 309 302 290 292 296 294